NORTHEAST SUFFOLK  -  Winter Weather Advisory Winter Weather Advisory        NORTHERN NASSAU  -  Winter Weather Advisory Winter Weather Advisory        NORTHWEST SUFFOLK  -  Winter Weather Advisory Winter Weather Advisory        SOUTHEAST SUFFOLK  -  Winter Weather Advisory Winter Weather Advisory        SOUTHERN NASSAU  -  Winter Weather Advisory Winter Weather Advisory        SOUTHWEST SUFFOLK  -  Winter Weather Advisory Winter Weather Advisory      

Active alerts

Northern Nassau
  Details for Northern Nassau Winter Weather Advisory
Southern Nassau
  Details for Southern Nassau Winter Weather Advisory
Northwest Suffolk
  Details for Northwest Suffolk Winter Weather Advisory
Southwest Suffolk
  Details for Southwest Suffolk Winter Weather Advisory
Northeast Suffolk
  Details for Northeast Suffolk Winter Weather Advisory
Southeast Suffolk
  Details for Southeast Suffolk Winter Weather Advisory


WXM80 ListenWXM80 Stop

You find our weather info also at:

UK Metoffice

WeatherCloud

Weather Underground

Northeastern Weather Network

AWEKAS

Citizen Weather Observer Program (CWOP)

HAMweather, WeatherForYou, PWS Weather


Weather Underground History page Text

Daily Summary for November 20, 2017 Units:  Metric    English   Both
« Previous Day
Next Day »
Daily Weekly Monthly Yearly Custom
  High: Low: Average:
Temperature: 8 °C 3.3 °C 5.3 °C
Dew Point: 1.2 °C -3.7 °C -1.7 °C
Humidity: 75 % 48 % 61 %
Wind Speed: 18 km/h 0.2 km/h 8.4 km/h
Wind Gust: 42.6 km/h - -
Wind:- - WSW
Pressure: 1021.2 hPa 1008.7 hPa -
Precipitation: 0 mm    
Historical Graphs
 
 
Tabular Data for November 20, 2017
Time Temperature Dew Point Pressure Wind Wind Speed Wind Gust Humidity Rainfall Rate (Hourly)
00:02 5.7 °C 1.1 °C 1008.7 hPa WSW 14.2 km/h 20.4 km/h 72 % 0 mm
00:17 5.5 °C 1.2 °C 1008.7 hPa SSW 8.2 km/h 17.7 km/h 74 % 0 mm
00:27 5.4 °C 1.1 °C 1009 hPa WSW 13.8 km/h 25.9 km/h 74 % 0 mm
00:28 5.4 °C 1.1 °C 1009 hPa WNW 9.2 km/h 20.4 km/h 74 % 0 mm
00:33 5.3 °C 1.1 °C 1009.4 hPa WSW 6.9 km/h 11.3 km/h 74 % 0 mm
00:38 5.3 °C 1.2 °C 1009.4 hPa West 10.6 km/h 14.8 km/h 75 % 0 mm
00:48 5.1 °C 0.8 °C 1009.4 hPa West 10.9 km/h 18.5 km/h 74 % 0 mm
00:53 5.1 °C 0.6 °C 1009.4 hPa WNW 9.8 km/h 16.1 km/h 73 % 0 mm
00:59 5.1 °C 0.6 °C 1009.4 hPa WSW 9.3 km/h 18.5 km/h 73 % 0 mm
01:04 5 °C 0.6 °C 1009.4 hPa West 7.2 km/h 16.7 km/h 73 % 0 mm
01:09 4.9 °C 0.5 °C 1009.4 hPa WSW 8 km/h 13 km/h 73 % 0 mm
01:14 4.9 °C 0.4 °C 1009.4 hPa West 4.2 km/h 13 km/h 73 % 0 mm
01:19 4.8 °C 0.4 °C 1009.4 hPa SW 12.4 km/h 18.5 km/h 73 % 0 mm
01:24 4.8 °C 0.4 °C 1009.4 hPa West 9.3 km/h 16.7 km/h 73 % 0 mm
01:29 4.8 °C 0.3 °C 1009.4 hPa SW 8.2 km/h 16.7 km/h 73 % 0 mm
01:34 4.8 °C 0.4 °C 1009.7 hPa West 7.6 km/h 14.8 km/h 73 % 0 mm
01:39 4.8 °C 0.4 °C 1009.7 hPa WNW 11.1 km/h 24.1 km/h 73 % 0 mm
01:44 4.8 °C 0.4 °C 1010 hPa SW 10.5 km/h 16.1 km/h 73 % 0 mm
01:49 4.8 °C 0.4 °C 1010 hPa SW 9.5 km/h 24.1 km/h 73 % 0 mm
01:54 4.8 °C 0.2 °C 1010 hPa West 10.6 km/h 18.5 km/h 72 % 0 mm
01:59 4.8 °C 0.2 °C 1010 hPa SW 9.8 km/h 14.8 km/h 72 % 0 mm
02:04 4.7 °C 0.1 °C 1010 hPa NW 3.9 km/h 13 km/h 72 % 0 mm
02:15 4.7 °C -0.3 °C 1010.4 hPa West 7.6 km/h 18.5 km/h 70 % 0 mm
02:20 4.7 °C -0.3 °C 1010.7 hPa WSW 8.5 km/h 18.5 km/h 70 % 0 mm
02:25 4.7 °C -0.2 °C 1010.7 hPa NW 14.2 km/h 18.5 km/h 71 % 0 mm
02:30 4.6 °C -0.2 °C 1010.7 hPa WSW 4.8 km/h 14.8 km/h 71 % 0 mm
02:40 4.6 °C -0.2 °C 1011.1 hPa WNW 7.4 km/h 14.8 km/h 71 % 0 mm
02:42 4.6 °C -0.4 °C 1011.1 hPa NW 10.5 km/h 22.5 km/h 70 % 0 mm
02:47 4.6 °C -0.6 °C 1011.7 hPa WNW 9.5 km/h 25.9 km/h 69 % 0 mm
02:52 4.7 °C -0.7 °C 1011.7 hPa North 10.6 km/h 22.2 km/h 68 % 0 mm
03:02 4.6 °C -2.5 °C 1012.1 hPa WNW 11.6 km/h 42.6 km/h 60 % 0 mm
03:07 4.6 °C -2.7 °C 1012.1 hPa WNW 14.2 km/h 24.1 km/h 59 % 0 mm
03:12 4.6 °C -3 °C 1012.1 hPa NW 15.1 km/h 37 km/h 58 % 0 mm
03:17 4.6 °C -3.2 °C 1012.1 hPa SW 10.1 km/h 25.9 km/h 57 % 0 mm
03:22 4.6 °C -3 °C 1012.4 hPa NW 16.6 km/h 33.8 km/h 58 % 0 mm
03:27 4.5 °C -3.3 °C 1012.4 hPa WNW 17.1 km/h 42.6 km/h 57 % 0 mm
03:37 4.4 °C -3.1 °C 1012.1 hPa WNW 11.4 km/h 19.3 km/h 58 % 0 mm
03:43 4.4 °C -2.7 °C 1012.1 hPa NW 11.7 km/h 27.8 km/h 60 % 0 mm
03:53 4.3 °C -3.2 °C 1012.8 hPa NW 12.4 km/h 27.8 km/h 58 % 0 mm
03:58 4.2 °C -3.3 °C 1012.8 hPa WNW 9.5 km/h 27.8 km/h 58 % 0 mm
04:03 4.2 °C -3.4 °C 1013.1 hPa WNW 15 km/h 27.8 km/h 58 % 0 mm
04:13 4.1 °C -3.2 °C 1013.1 hPa West 10.6 km/h 27.8 km/h 59 % 0 mm
04:18 3.9 °C -3.3 °C 1013.4 hPa NW 11.7 km/h 22.2 km/h 59 % 0 mm
04:23 3.9 °C -3.2 °C 1013.4 hPa West 12.6 km/h 18.5 km/h 60 % 0 mm
04:28 3.8 °C -3.7 °C 1013.4 hPa NW 14.2 km/h 18.5 km/h 58 % 0 mm
04:43 3.6 °C -3.7 °C 1013.4 hPa WNW 9.8 km/h 14.8 km/h 59 % 0 mm
04:48 3.6 °C -3.4 °C 1013.8 hPa NW 2.4 km/h 5.6 km/h 60 % 0 mm
04:53 3.6 °C -3.5 °C 1013.8 hPa SW 7.6 km/h 16.1 km/h 60 % 0 mm
05:07 3.4 °C -3.6 °C 1014.1 hPa WNW 7.6 km/h 18.5 km/h 60 % 0 mm
05:12 3.4 °C -3.7 °C 1014.1 hPa WNW 6.9 km/h 18.5 km/h 60 % 0 mm
05:17 3.4 °C -3.7 °C 1014.1 hPa WNW 14.8 km/h 22.2 km/h 60 % 0 mm
05:27 3.4 °C -3.4 °C 1014.1 hPa NW 6.4 km/h 18.5 km/h 61 % 0 mm
05:32 3.3 °C -3.5 °C 1014.1 hPa West 8.2 km/h 16.7 km/h 61 % 0 mm
05:37 3.3 °C -3.3 °C 1014.1 hPa SW 5.8 km/h 18.5 km/h 62 % 0 mm
05:42 3.3 °C -3.3 °C 1014.4 hPa WNW 6.8 km/h 16.7 km/h 62 % 0 mm
05:47 3.3 °C -3.3 °C 1014.4 hPa SW 9.5 km/h 27.8 km/h 62 % 0 mm
05:52 3.3 °C -3.1 °C 1014.4 hPa West 10.5 km/h 20.4 km/h 63 % 0 mm
05:57 3.3 °C -3.1 °C 1014.8 hPa SW 11.7 km/h 27.8 km/h 63 % 0 mm
06:02 3.3 °C -3.3 °C 1014.8 hPa West 12.6 km/h 29.6 km/h 62 % 0 mm
06:07 3.3 °C -3.1 °C 1014.8 hPa SW 8.2 km/h 14.5 km/h 63 % 0 mm
06:17 3.3 °C -3.1 °C 1015.1 hPa SW 9.8 km/h 25.7 km/h 63 % 0 mm
06:22 3.3 °C -3.3 °C 1015.1 hPa WNW 7.2 km/h 16.7 km/h 62 % 0 mm
06:27 3.3 °C -3.3 °C 1015.1 hPa WNW 11.1 km/h 16.7 km/h 62 % 0 mm
06:33 3.3 °C -2.8 °C 1015.5 hPa West 7.6 km/h 20.4 km/h 64 % 0 mm
06:38 3.3 °C -3.1 °C 1015.5 hPa WSW 14.3 km/h 16.7 km/h 63 % 0 mm
06:43 3.3 °C -2.8 °C 1015.8 hPa WNW 7.7 km/h 18.5 km/h 64 % 0 mm
06:58 3.3 °C -3.1 °C 1015.8 hPa SSW 6.9 km/h 18.5 km/h 63 % 0 mm
07:03 3.3 °C -2.6 °C 1015.8 hPa West 7.1 km/h 14.8 km/h 65 % 0 mm
07:18 3.4 °C -3 °C 1016.1 hPa WSW 8.9 km/h 24.1 km/h 63 % 0 mm
07:23 3.5 °C -2.9 °C 1016.1 hPa WSW 6.9 km/h 13 km/h 63 % 0 mm
07:28 3.6 °C -3.1 °C 1016.5 hPa WNW 10.6 km/h 20.9 km/h 62 % 0 mm
07:33 3.6 °C -2.8 °C 1016.5 hPa NNW 11.3 km/h 20.9 km/h 63 % 0 mm
07:43 3.6 °C -3 °C 1016.5 hPa WNW 12.7 km/h 18.5 km/h 62 % 0 mm
07:53 3.6 °C -3 °C 1016.8 hPa NW 11.9 km/h 22.5 km/h 62 % 0 mm
07:58 3.7 °C -2.5 °C 1016.8 hPa NW 10.9 km/h 14.8 km/h 64 % 0 mm
08:03 3.7 °C -2.4 °C 1016.8 hPa WSW 9.3 km/h 14.8 km/h 64 % 0 mm
08:14 3.8 °C -2.6 °C 1016.8 hPa West 15.3 km/h 31.5 km/h 63 % 0 mm
08:19 3.9 °C -2.3 °C 1017.2 hPa SW 9.7 km/h 18.5 km/h 64 % 0 mm
08:24 3.9 °C -2.1 °C 1017.2 hPa WNW 10.3 km/h 18.5 km/h 65 % 0 mm
08:29 4 °C -1.8 °C 1016.8 hPa WSW 11.7 km/h 24.1 km/h 66 % 0 mm
08:39 4.1 °C -1.7 °C 1017.2 hPa West 10 km/h 16.7 km/h 66 % 0 mm
08:44 4.1 °C -1.9 °C 1017.2 hPa WSW 16.7 km/h 24.1 km/h 65 % 0 mm
08:54 4.3 °C -2.2 °C 1017.2 hPa WNW 18 km/h 31.5 km/h 63 % 0 mm
08:59 4.4 °C -1.8 °C 1017.2 hPa NW 11.4 km/h 25.9 km/h 64 % 0 mm
09:04 4.7 °C -1.6 °C 1017.2 hPa West 15.8 km/h 27.4 km/h 64 % 0 mm
09:09 4.7 °C -1.7 °C 1017.5 hPa SW 5.5 km/h 13 km/h 63 % 0 mm
09:14 4.8 °C -1.7 °C 1017.5 hPa WSW 9.8 km/h 18.5 km/h 63 % 0 mm
09:24 4.8 °C -1.3 °C 1017.5 hPa WNW 6.9 km/h 14.8 km/h 65 % 0 mm
09:34 4.7 °C -1.1 °C 1017.8 hPa NW 7.9 km/h 13 km/h 66 % 0 mm
09:39 4.7 °C -1.6 °C 1017.5 hPa WNW 11.7 km/h 25.9 km/h 64 % 0 mm
09:44 4.6 °C -1.4 °C 1017.5 hPa WSW 13.7 km/h 20.9 km/h 65 % 0 mm
09:49 4.6 °C -1.1 °C 1017.8 hPa SW 14.2 km/h 20.4 km/h 67 % 0 mm
09:54 4.5 °C -1.1 °C 1017.5 hPa West 4.8 km/h 11.1 km/h 67 % 0 mm
09:59 4.4 °C -1.2 °C 1017.8 hPa West 9.7 km/h 18.5 km/h 67 % 0 mm
10:04 4.4 °C -1.2 °C 1017.8 hPa West 9.8 km/h 18.5 km/h 67 % 0 mm
10:12 4.4 °C -1.2 °C 1017.8 hPa SW 11.4 km/h 14.8 km/h 67 % 0 mm
10:17 4.6 °C -0.8 °C 1017.5 hPa WNW 10.3 km/h 18.5 km/h 68 % 0 mm
10:22 4.8 °C -1 °C 1017.8 hPa West 10.5 km/h 18.5 km/h 66 % 0 mm
10:27 5.1 °C -0.8 °C 1017.8 hPa West 8.4 km/h 14.8 km/h 66 % 0 mm
10:32 5.2 °C -1.1 °C 1017.8 hPa WSW 12.1 km/h 24.1 km/h 64 % 0 mm
10:37 5.4 °C -1.1 °C 1017.8 hPa West 7.9 km/h 13 km/h 63 % 0 mm
10:38 5.4 °C -1.1 °C 1017.8 hPa West 10.3 km/h 14.8 km/h 63 % 0 mm
10:43 5.4 °C -1.1 °C 1017.5 hPa NW 8.9 km/h 16.7 km/h 63 % 0 mm
10:48 5.4 °C -1.6 °C 1017.8 hPa WNW 9.7 km/h 11.3 km/h 61 % 0 mm
10:49 5.3 °C -1.6 °C 1017.8 hPa WNW 12.2 km/h 22.2 km/h 61 % 0 mm
10:54 5.3 °C -1.4 °C 1017.5 hPa WSW 9 km/h 16.7 km/h 62 % 0 mm
11:09 5.2 °C -1.3 °C 1017.5 hPa West 15.3 km/h 32.2 km/h 63 % 0 mm
11:14 5.2 °C -1.3 °C 1017.5 hPa SW 5.1 km/h 14.8 km/h 63 % 0 mm
11:19 5.2 °C -1.1 °C 1017.5 hPa NW 9.8 km/h 13 km/h 64 % 0 mm
11:29 5.4 °C -1.6 °C 1017.5 hPa West 13 km/h 18.5 km/h 61 % 0 mm
11:39 5.6 °C -1.6 °C 1017.2 hPa WNW 6.6 km/h 16.7 km/h 60 % 0 mm
11:40 5.6 °C -1.6 °C 1017.2 hPa NW 6.3 km/h 9.7 km/h 60 % 0 mm
11:45 5.7 °C -1.4 °C 1017.5 hPa SW 11.3 km/h 22.2 km/h 60 % 0 mm
11:50 5.8 °C -1.4 °C 1017.2 hPa WNW 6.8 km/h 18.5 km/h 60 % 0 mm
11:55 5.9 °C -1.5 °C 1017.2 hPa NW 5.3 km/h 16.7 km/h 59 % 0 mm
12:00 5.9 °C -1.2 °C 1017.2 hPa West 8.2 km/h 14.5 km/h 60 % 0 mm
12:02 6 °C -0.9 °C 1017.2 hPa West 9.8 km/h 14.8 km/h 61 % 0 mm
12:07 6.1 °C -1.1 °C 1017.2 hPa West 9.2 km/h 18.5 km/h 60 % 0 mm
12:12 6.2 °C -1.3 °C 1017.2 hPa West 9.2 km/h 18.5 km/h 59 % 0 mm
12:17 6.2 °C -1 °C 1017.2 hPa WSW 13.2 km/h 20.4 km/h 60 % 0 mm
12:27 6.3 °C -0.9 °C 1017.2 hPa WNW 6.3 km/h 9.7 km/h 60 % 0 mm
12:32 6.4 °C -1.1 °C 1016.8 hPa WSW 11.3 km/h 20.4 km/h 59 % 0 mm
12:36 6.5 °C -1.2 °C 1016.8 hPa SW 11.4 km/h 16.7 km/h 58 % 0 mm
12:41 6.6 °C -1.4 °C 1016.8 hPa WSW 9.7 km/h 12.9 km/h 57 % 0 mm
12:51 6.7 °C -1.2 °C 1016.8 hPa West 9.2 km/h 18.5 km/h 57 % 0 mm
13:02 6.8 °C -2.1 °C 1016.8 hPa NW 8.5 km/h 25.9 km/h 53 % 0 mm
13:07 6.8 °C -1.6 °C 1016.8 hPa WSW 0.6 km/h 13 km/h 55 % 0 mm
13:12 6.9 °C -1.8 °C 1016.8 hPa West 7.1 km/h 22.2 km/h 54 % 0 mm
13:17 7.1 °C -1.6 °C 1016.8 hPa WNW 12.4 km/h 22.2 km/h 54 % 0 mm
13:27 7.2 °C -2 °C 1016.8 hPa West 8.5 km/h 14.8 km/h 52 % 0 mm
13:32 7.4 °C -1.8 °C 1016.8 hPa WNW 10.3 km/h 18.5 km/h 52 % 0 mm
13:42 7.8 °C -2 °C 1016.8 hPa West 11.9 km/h 18.5 km/h 50 % 0 mm
13:47 7.9 °C -2.1 °C 1016.8 hPa WNW 12.9 km/h 20.4 km/h 49 % 0 mm
14:01 8 °C -2.3 °C 1017.2 hPa WNW 9.3 km/h 20.9 km/h 48 % 0 mm
14:06 8 °C -2.1 °C 1017.2 hPa West 3.2 km/h 20.9 km/h 49 % 0 mm
14:11 8 °C -2.4 °C 1017.2 hPa WSW 8 km/h 25.7 km/h 48 % 0 mm
14:21 7.9 °C -2.2 °C 1017.2 hPa West 12.9 km/h 22.5 km/h 49 % 0 mm
14:26 7.9 °C -1.7 °C 1017.5 hPa West 8 km/h 16.1 km/h 51 % 0 mm
14:31 7.8 °C -1.9 °C 1017.2 hPa WSW 9.3 km/h 18.5 km/h 50 % 0 mm
14:36 7.8 °C -1.9 °C 1017.5 hPa WNW 9.7 km/h 25.7 km/h 50 % 0 mm
14:51 7.8 °C -2 °C 1017.5 hPa WSW 11.3 km/h 19.3 km/h 50 % 0 mm
14:56 7.8 °C -2 °C 1017.5 hPa West 6.3 km/h 13 km/h 50 % 0 mm
15:01 7.8 °C -2 °C 1017.8 hPa SSW 3.7 km/h 7.4 km/h 50 % 0 mm
15:06 7.8 °C -2 °C 1017.8 hPa SW 11.4 km/h 25.9 km/h 50 % 0 mm
15:11 7.8 °C -1.7 °C 1017.8 hPa WNW 9.8 km/h 14.8 km/h 51 % 0 mm
15:16 7.8 °C -2 °C 1017.8 hPa West 6.3 km/h 11.1 km/h 50 % 0 mm
15:21 7.7 °C -2.1 °C 1018.2 hPa West 4.7 km/h 7.4 km/h 50 % 0 mm
15:26 7.7 °C -1.8 °C 1018.2 hPa WNW 6 km/h 9.3 km/h 51 % 0 mm
15:31 7.6 °C -1.9 °C 1017.8 hPa WSW 7.4 km/h 18.5 km/h 51 % 0 mm
15:36 7.6 °C -1.9 °C 1018.2 hPa SW 9.7 km/h 14.8 km/h 51 % 0 mm
15:41 7.5 °C -1.7 °C 1018.2 hPa West 3.1 km/h 11.1 km/h 52 % 0 mm
15:46 7.4 °C -1.8 °C 1018.2 hPa SW 5 km/h 11.1 km/h 52 % 0 mm
15:51 7.4 °C -1.8 °C 1018.2 hPa WNW 6.1 km/h 19.3 km/h 52 % 0 mm
15:56 7.3 °C -1.9 °C 1018.2 hPa WSW 9.7 km/h 16.7 km/h 52 % 0 mm
16:02 7.3 °C -1.6 °C 1018.5 hPa West 8.2 km/h 13 km/h 53 % 0 mm
16:12 7.3 °C -1.7 °C 1018.5 hPa SSW 5.8 km/h 13 km/h 53 % 0 mm
16:17 7.2 °C -1.7 °C 1018.5 hPa WSW 6.4 km/h 13 km/h 53 % 0 mm
16:22 7.2 °C -1.8 °C 1018.5 hPa SW 5 km/h 11.1 km/h 53 % 0 mm
16:27 7.1 °C -1.6 °C 1018.5 hPa WSW 9 km/h 20.4 km/h 54 % 0 mm
16:32 7.1 °C -1.4 °C 1018.5 hPa SSW 3.4 km/h 14.8 km/h 55 % 0 mm
16:42 6.9 °C -1.7 °C 1018.5 hPa SSW 7.4 km/h 16.7 km/h 54 % 0 mm
16:47 6.8 °C -1.8 °C 1018.5 hPa SSW 7.4 km/h 16.7 km/h 54 % 0 mm
16:52 6.8 °C -1.9 °C 1018.5 hPa SW 3.7 km/h 5.6 km/h 54 % 0 mm
17:02 6.6 °C -1.8 °C 1018.5 hPa SW 6.9 km/h 12.9 km/h 55 % 0 mm
17:12 6.5 °C -1.9 °C 1018.8 hPa SSW 6.8 km/h 13 km/h 55 % 0 mm
17:17 6.5 °C -1.9 °C 1018.8 hPa SW 3.9 km/h 7.4 km/h 55 % 0 mm
17:22 6.4 °C -1.7 °C 1018.8 hPa SSW 5.1 km/h 11.1 km/h 56 % 0 mm
17:27 6.4 °C -1.8 °C 1018.8 hPa SW 2.4 km/h 6.4 km/h 56 % 0 mm
17:32 6.3 °C -1.8 °C 1018.8 hPa SW 4.5 km/h 9.3 km/h 56 % 0 mm
17:37 6.3 °C -1.9 °C 1019.2 hPa SW 4.3 km/h 7.4 km/h 56 % 0 mm
17:43 6.2 °C -1.7 °C 1019.2 hPa SSW 3.7 km/h 6.4 km/h 57 % 0 mm
17:48 6.2 °C -1.7 °C 1019.2 hPa WSW 3.5 km/h 3.7 km/h 57 % 0 mm
17:58 6 °C -1.7 °C 1019.5 hPa WSW 3.2 km/h 5.6 km/h 58 % 0 mm
18:08 5.9 °C -1.7 °C 1019.5 hPa SSW 6.8 km/h 14.5 km/h 58 % 0 mm
18:13 5.8 °C -1.8 °C 1019.5 hPa SSW 6.8 km/h 13 km/h 58 % 0 mm
18:18 5.8 °C -1.8 °C 1019.5 hPa WSW 5.8 km/h 11.1 km/h 58 % 0 mm
18:23 5.8 °C -1.6 °C 1019.5 hPa SW 4.2 km/h 6.4 km/h 59 % 0 mm
18:28 5.7 °C -1.7 °C 1019.5 hPa SW 3.4 km/h 7.4 km/h 59 % 0 mm
18:33 5.7 °C -1.7 °C 1019.5 hPa West 3.5 km/h 9.3 km/h 59 % 0 mm
18:43 5.7 °C -1.5 °C 1019.9 hPa SW 1.4 km/h 5.6 km/h 60 % 0 mm
19:03 5.5 °C -1.4 °C 1019.9 hPa SSW 3.9 km/h 5.6 km/h 61 % 0 mm
19:10 5.4 °C -1.5 °C 1019.9 hPa SSW 1.1 km/h 4.8 km/h 61 % 0 mm
19:16 5.4 °C -1.6 °C 1019.9 hPa WSW 4 km/h 13 km/h 61 % 0 mm
19:21 5.3 °C -1.8 °C 1019.9 hPa WSW 6.9 km/h 12.9 km/h 60 % 0 mm
19:29 5.3 °C -1.7 °C 1011.7 hPa WSW 4.2 km/h 8 km/h 61 % 0 mm
19:31 5.3 °C -1.7 °C 1019.9 hPa SW 7.1 km/h 7.4 km/h 61 % 0 mm
19:34 5.3 °C -1.7 °C 1011.7 hPa SW 2.7 km/h 7.4 km/h 61 % 0 mm
19:39 5.2 °C -1.7 °C 1019.9 hPa SW 6.8 km/h 12.9 km/h 61 % 0 mm
19:54 5.2 °C -1.5 °C 1019.9 hPa SW 3.4 km/h 8 km/h 62 % 0 mm
19:59 5.2 °C -1.5 °C 1019.9 hPa SSW 3.9 km/h 5.6 km/h 62 % 0 mm
20:09 5.2 °C -1.5 °C 1020.2 hPa SW 2.7 km/h 7.4 km/h 62 % 0 mm
20:19 5.1 °C -1.6 °C 1020.2 hPa WSW 1.8 km/h 5.6 km/h 62 % 0 mm
20:29 5.1 °C -1.6 °C 1020.2 hPa SW 1 km/h 1.9 km/h 62 % 0 mm
20:34 5 °C -1.4 °C 1011.7 hPa WSW 0.2 km/h 3.7 km/h 63 % 0 mm
20:44 4.8 °C -1.6 °C 1020.2 hPa WSW 3.2 km/h 7.4 km/h 63 % 0 mm
20:49 4.8 °C -1.7 °C 1020.2 hPa SSW 8.5 km/h 11.1 km/h 63 % 0 mm
20:54 4.7 °C -1.7 °C 1020.2 hPa SSW 10.5 km/h 14.8 km/h 63 % 0 mm
20:59 4.7 °C -1.7 °C 1020.2 hPa SW 3.4 km/h 9.3 km/h 63 % 0 mm
21:04 4.7 °C -1.7 °C 1020.2 hPa WSW 6.6 km/h 11.3 km/h 63 % 0 mm
21:14 4.8 °C -1.8 °C 1020.2 hPa SW 5.6 km/h 11.1 km/h 62 % 0 mm
21:19 4.9 °C -1.7 °C 1020.2 hPa WSW 3.4 km/h 12.9 km/h 62 % 0 mm
21:30 5.2 °C -1.7 °C 1019.9 hPa WSW 7.2 km/h 13 km/h 61 % 0 mm
21:35 5.3 °C -1.9 °C 1020.2 hPa SW 7.2 km/h 20.9 km/h 60 % 0 mm
21:45 5.6 °C -1.8 °C 1020.2 hPa SW 8.5 km/h 16.7 km/h 59 % 0 mm
21:55 5.7 °C -1.7 °C 1020.2 hPa WSW 11.1 km/h 18.5 km/h 59 % 0 mm
22:00 5.8 °C -1.6 °C 1020.2 hPa WSW 6.4 km/h 18.5 km/h 59 % 0 mm
22:02 5.8 °C -1.6 °C 1020.2 hPa WSW 9 km/h 13 km/h 59 % 0 mm
22:12 5.8 °C -1.8 °C 1020.2 hPa SW 6.1 km/h 18.5 km/h 58 % 0 mm
22:17 5.8 °C -1.8 °C 1020.2 hPa West 11.4 km/h 18.5 km/h 58 % 0 mm
22:22 5.8 °C -1.8 °C 1020.2 hPa SW 9 km/h 16.1 km/h 58 % 0 mm
22:28 5.8 °C -1.8 °C 1020.2 hPa South 6.3 km/h 11.1 km/h 58 % 0 mm
22:29 5.8 °C -1.8 °C 1020.5 hPa SW 6.4 km/h 16.1 km/h 58 % 0 mm
22:33 5.9 °C -1.8 °C 1020.2 hPa SW 7.2 km/h 22.2 km/h 58 % 0 mm
22:38 5.9 °C -1.7 °C 1020.5 hPa SW 5.5 km/h 16.7 km/h 58 % 0 mm
22:43 5.9 °C -1.7 °C 1020.5 hPa SSW 7.6 km/h 11.1 km/h 58 % 0 mm
23:03 6.2 °C -1.7 °C 1020.5 hPa SW 7.4 km/h 14.5 km/h 57 % 0 mm
23:08 6.2 °C -1.7 °C 1020.9 hPa SW 7.1 km/h 13 km/h 57 % 0 mm
23:13 6.1 °C -1.8 °C 1020.9 hPa WSW 8.7 km/h 14.5 km/h 57 % 0 mm
23:23 6 °C -1.9 °C 1020.9 hPa SSW 4.3 km/h 9.3 km/h 57 % 0 mm
23:28 5.9 °C -1.9 °C 1020.9 hPa WSW 1 km/h 3.7 km/h 57 % 0 mm
23:33 5.9 °C -1.8 °C 1020.9 hPa SSW 0.5 km/h 5.6 km/h 58 % 0 mm
23:59 5.4 °C -1.9 °C 1021.2 hPa WSW 5.1 km/h 7.4 km/h 59 % 0 mm
Crab Meadow Weather
Compliments of Weather Underground - 2.75 mb

Script developed by  Jim McMurry - jmcmurry@mwt.net Adapted for the template by  Wim van der Kuil - Leuven-Template.eu

Weather Terms: Heat Index - The apparent temperature that describes the combined effect of high temperatures and high levels of humidity, which reduces the body's ability to cool itself.